FENGYUN 3G

Last updated on Thu Oct 30 2025 00:02:23 GMT+0000 (Coordinated Universal Time)

1 56232U 23055A 25302.52477731 .00036452 00000+0 58175-3 0 9999 2 56232 49.9937 95.4442 0020430 304.9685 54.9364 15.52569211144156
UTC large
Height (km)
Speed (km/s)
/
Latitude / Longitude
Inclination (degrees)
Orbital Period (minutes)
Azimuth
Elevation
Range (km)
Doppler Factor

Next 0 passes for location: London (51.5072 / 0.1276)

Sorry there are no passes over London.